Time,TemperatureF,DewpointF,PressureIn,WindDirection,WindDirectionDegrees,WindSpeedMPH,WindSpeedGustMPH,Humidity,HourlyPrecipIn,Conditions,Clouds,dailyrainin,SolarRadiationWatts/m^2,SoftwareType,DateUTC
2013-02-17 00:00:00,9.2,2.9,29.84,ENE,71,0.0,2.0,75,0.00,,OVC200,0.01,0.00,VWS V14.01,2013-02-17 06:00:00,
2013-02-17 00:05:00,9.3,3.0,29.84,ENE,71,0.0,0.0,75,0.00,,OVC200,0.00,0.00,VWS V14.01,2013-02-17 06:05:00,
2013-02-17 00:10:00,9.5,2.9,29.84,ENE,71,0.0,3.0,74,0.00,,OVC200,0.00,0.00,VWS V14.01,2013-02-17 06:10:00,
2013-02-17 00:15:00,9.7,3.1,29.84,ENE,71,0.0,3.0,74,0.00,,OVC200,0.00,0.00,VWS V14.01,2013-02-17 06:15:00,
2013-02-17 00:20:00,9.9,3.0,29.84,ENE,71,0.0,3.0,73,0.00,,OVC200,0.00,0.00,VWS V14.01,2013-02-17 06:20:00,
2013-02-17 00:25:00,9.9,3.0,29.84,ENE,71,0.0,3.0,73,0.00,,OVC200,0.00,0.00,VWS V14.01,2013-02-17 06:25:00,
2013-02-17 00:30:00,10.0,3.1,29.84,ENE,71,0.0,3.0,73,0.00,,OVC200,0.00,0.00,VWS V14.01,2013-02-17 06:30:00,
2013-02-17 00:34:00,10.2,3.3,29.84,ENE,71,0.0,0.0,73,0.00,,OVC200,0.00,0.00,VWS V14.01,2013-02-17 06:34:00,
2013-02-17 00:39:00,10.2,3.0,29.84,ENE,71,0.0,0.0,72,0.00,,OVC200,0.00,0.00,VWS V14.01,2013-02-17 06:39:00,
2013-02-17 00:44:00,10.4,3.2,29.84,ENE,71,0.0,0.0,72,0.00,,OVC200,0.00,0.00,VWS V14.01,2013-02-17 06:44:00,
2013-02-17 00:49:00,10.7,3.5,29.84,ENE,71,0.0,1.0,72,0.00,,OVC200,0.00,0.00,VWS V14.01,2013-02-17 06:49:00,
2013-02-17 00:54:00,10.9,3.7,29.84,ENE,71,0.0,1.0,72,0.00,,OVC200,0.00,0.00,VWS V14.01,2013-02-17 06:54:00,
2013-02-17 00:59:00,11.1,3.8,29.84,ENE,70,2.0,2.0,72,0.00,,OVC200,0.00,0.00,VWS V14.01,2013-02-17 06:59:00,
2013-02-17 01:00:00,11.1,3.8,29.85,ENE,69,0.0,2.0,72,0.00,,OVC075,0.00,0.00,VWS V15.00,2013-02-17 07:00:00,
2013-02-17 01:04:00,11.1,3.8,29.85,ENE,69,0.0,0.0,72,0.00,,OVC200,0.00,0.00,VWS V14.01,2013-02-17 07:04:00,
2013-02-17 01:09:00,11.1,3.8,29.85,ENE,69,0.0,0.0,72,0.00,,OVC200,0.00,0.00,VWS V14.01,2013-02-17 07:09:00,
2013-02-17 01:14:00,11.1,3.8,29.85,ENE,69,0.0,1.0,72,0.00,,OVC200,0.00,0.00,VWS V14.01,2013-02-17 07:14:00,
2013-02-17 01:19:00,11.1,3.8,29.85,ENE,69,0.0,1.0,72,0.00,,OVC200,0.00,0.00,VWS V14.01,2013-02-17 07:19:00,
2013-02-17 01:24:00,11.1,3.8,29.85,ENE,69,0.0,2.0,72,0.00,,OVC200,0.00,0.00,VWS V14.01,2013-02-17 07:24:00,
2013-02-17 01:29:00,10.9,3.7,29.85,ENE,69,1.0,3.0,72,0.00,,OVC200,0.00,0.00,VWS V14.01,2013-02-17 07:29:00,
2013-02-17 01:30:00,10.7,3.5,29.84,ENE,69,0.0,3.0,72,0.00,,OVC075,0.00,0.00,VWS V15.00,2013-02-17 07:30:00,
2013-02-17 01:34:00,10.7,3.5,29.84,ENE,69,1.0,1.0,72,0.00,,OVC200,0.00,0.00,VWS V14.01,2013-02-17 07:34:00,
2013-02-17 01:39:00,10.7,3.5,29.84,ENE,69,0.0,3.0,72,0.00,,OVC200,0.00,0.00,VWS V14.01,2013-02-17 07:39:00,
2013-02-17 01:44:00,10.5,3.3,29.84,ENE,66,0.0,3.0,72,0.00,,OVC200,0.00,0.00,VWS V14.01,2013-02-17 07:44:00,
2013-02-17 01:49:00,10.5,3.3,29.84,ENE,66,0.0,3.0,72,0.00,,OVC200,0.00,0.00,VWS V14.01,2013-02-17 07:49:00,
2013-02-17 01:54:00,10.4,3.2,29.84,ENE,66,0.0,3.0,72,0.00,,OVC200,0.00,0.00,VWS V14.01,2013-02-17 07:54:00,
2013-02-17 01:59:00,10.2,3.0,29.84,ENE,66,0.0,3.0,72,0.00,,OVC200,0.00,0.00,VWS V14.01,2013-02-17 07:59:00,
2013-02-17 02:00:00,10.2,3.0,29.83,ENE,66,0.0,3.0,72,0.00,,OVC075,0.00,0.00,VWS V15.00,2013-02-17 08:00:00,
2013-02-17 02:04:00,10.2,3.0,29.83,ENE,66,0.0,0.0,72,0.00,,OVC200,0.00,0.00,VWS V14.01,2013-02-17 08:04:00,
2013-02-17 02:09:00,10.2,3.0,29.83,ENE,66,0.0,2.0,72,0.00,,OVC200,0.00,0.00,VWS V14.01,2013-02-17 08:09:00,
2013-02-17 02:14:00,10.2,3.0,29.83,ENE,66,0.0,2.0,72,0.00,,OVC200,0.00,0.00,VWS V14.01,2013-02-17 08:14:00,
2013-02-17 02:19:00,10.2,3.0,29.83,ENE,65,1.0,2.0,72,0.00,,OVC200,0.00,0.00,VWS V14.01,2013-02-17 08:19:00,
2013-02-17 02:24:00,10.2,3.0,29.83,ENE,59,0.0,3.0,72,0.00,,OVC200,0.00,0.00,VWS V14.01,2013-02-17 08:24:00,
2013-02-17 02:29:00,10.2,3.3,29.83,ENE,59,0.0,3.0,73,0.00,,OVC200,0.00,0.00,VWS V14.01,2013-02-17 08:29:00,
2013-02-17 02:30:00,10.2,3.3,29.83,ENE,59,1.0,3.0,73,0.00,,OVC075,0.00,0.00,VWS V15.00,2013-02-17 08:30:00,
2013-02-17 02:34:00,10.2,3.3,29.83,ENE,59,1.0,1.0,73,0.00,,OVC200,0.00,0.00,VWS V14.01,2013-02-17 08:34:00,
2013-02-17 02:39:00,10.2,3.3,29.83,NE,54,0.0,3.0,73,0.00,,OVC200,0.00,0.00,VWS V14.01,2013-02-17 08:39:00,
2013-02-17 02:44:00,10.2,3.3,29.83,NE,54,0.0,3.0,73,0.00,,OVC200,0.00,0.00,VWS V14.01,2013-02-17 08:44:00,
2013-02-17 02:49:00,10.0,3.1,29.82,NE,54,0.0,3.0,73,0.00,,OVC200,0.00,0.00,VWS V14.01,2013-02-17 08:49:00,
2013-02-17 02:54:00,9.9,3.0,29.82,NE,54,0.0,3.0,73,0.00,,OVC200,0.00,0.00,VWS V14.01,2013-02-17 08:54:00,
2013-02-17 02:59:00,9.9,3.0,29.82,NE,54,2.0,3.0,73,0.00,,OVC200,0.00,0.00,VWS V14.01,2013-02-17 08:59:00,
2013-02-17 03:00:00,9.9,3.0,29.82,NE,54,0.0,3.0,73,0.00,,OVC075,0.00,0.00,VWS V15.00,2013-02-17 09:00:00,
2013-02-17 03:04:00,9.9,3.0,29.82,NE,54,0.0,0.0,73,0.00,,OVC200,0.00,0.00,VWS V14.01,2013-02-17 09:04:00,
2013-02-17 03:09:00,9.9,3.0,29.82,NE,54,0.0,2.0,73,0.00,,OVC200,0.00,0.00,VWS V14.01,2013-02-17 09:09:00,
2013-02-17 03:14:00,9.9,3.0,29.82,NE,54,0.0,2.0,73,0.00,,OVC200,0.00,0.00,VWS V14.01,2013-02-17 09:14:00,
2013-02-17 03:19:00,9.9,3.3,29.81,NE,54,0.0,2.0,74,0.00,,OVC200,0.00,0.00,VWS V14.01,2013-02-17 09:19:00,
2013-02-17 03:24:00,9.9,3.3,29.81,NE,54,0.0,2.0,74,0.00,,OVC200,0.00,0.00,VWS V14.01,2013-02-17 09:24:00,
2013-02-17 03:29:00,9.7,2.8,29.81,NE,54,0.0,2.0,73,0.00,,OVC200,0.00,0.00,VWS V14.01,2013-02-17 09:29:00,
2013-02-17 03:30:00,9.7,3.1,29.81,NE,54,0.0,2.0,74,0.00,,OVC075,0.00,0.00,VWS V15.00,2013-02-17 09:30:00,
2013-02-17 03:34:00,9.7,3.1,29.81,NE,54,0.0,0.0,74,0.00,,OVC200,0.00,0.00,VWS V14.01,2013-02-17 09:34:00,
2013-02-17 03:39:00,9.7,3.1,29.81,NE,54,0.0,0.0,74,0.00,,OVC200,0.00,0.00,VWS V14.01,2013-02-17 09:39:00,
2013-02-17 03:44:00,9.9,3.3,29.81,NE,54,1.0,1.0,74,0.00,,OVC200,0.00,0.00,VWS V14.01,2013-02-17 09:44:00,
2013-02-17 03:49:00,9.7,3.1,29.81,NE,54,0.0,1.0,74,0.00,,OVC200,0.00,0.00,VWS V14.01,2013-02-17 09:49:00,
2013-02-17 03:54:00,9.5,2.9,29.81,NE,54,0.0,1.0,74,0.00,,OVC200,0.00,0.00,VWS V14.01,2013-02-17 09:54:00,
2013-02-17 03:59:00,9.3,2.7,29.81,NE,54,0.0,1.0,74,0.00,,OVC200,0.00,0.00,VWS V14.01,2013-02-17 09:59:00,
2013-02-17 04:00:00,9.2,2.6,29.81,NE,54,0.0,1.0,74,0.00,,OVC075,0.00,0.00,VWS V15.00,2013-02-17 10:00:00,
2013-02-17 04:04:00,9.2,2.6,29.81,NE,54,0.0,0.0,74,0.00,,OVC200,0.00,0.00,VWS V14.01,2013-02-17 10:04:00,
2013-02-17 04:09:00,9.0,2.4,29.81,NE,54,0.0,0.0,74,0.00,,OVC200,0.00,0.00,VWS V14.01,2013-02-17 10:09:00,
2013-02-17 04:14:00,8.6,2.3,29.81,NE,54,0.0,0.0,75,0.00,,OVC200,0.00,0.00,VWS V14.01,2013-02-17 10:14:00,
2013-02-17 04:19:00,8.4,2.1,29.81,NE,54,0.0,0.0,75,0.00,,OVC200,0.00,0.00,VWS V14.01,2013-02-17 10:19:00,
2013-02-17 04:24:00,8.3,2.0,29.81,NE,54,0.0,0.0,75,0.00,,OVC200,0.00,0.00,VWS V14.01,2013-02-17 10:24:00,
2013-02-17 04:29:00,8.3,2.3,29.81,NE,54,0.0,0.0,76,0.00,,OVC200,0.00,0.00,VWS V14.01,2013-02-17 10:29:00,
2013-02-17 04:30:00,8.3,2.3,29.80,NE,54,0.0,0.0,76,0.00,,OVC075,0.00,0.00,VWS V15.00,2013-02-17 10:30:00,
2013-02-17 04:34:00,8.3,2.3,29.80,NE,54,0.0,0.0,76,0.00,,OVC200,0.00,0.00,VWS V14.01,2013-02-17 10:34:00,
2013-02-17 04:39:00,8.3,2.3,29.80,NE,54,0.0,0.0,76,0.00,,OVC200,0.00,0.00,VWS V14.01,2013-02-17 10:39:00,
2013-02-17 04:44:00,8.3,2.3,29.80,NE,54,0.0,0.0,76,0.00,,OVC200,0.00,0.00,VWS V14.01,2013-02-17 10:44:00,
2013-02-17 04:49:00,8.1,2.1,29.79,NE,54,0.0,0.0,76,0.00,,OVC200,0.00,0.00,VWS V14.01,2013-02-17 10:49:00,
2013-02-17 04:54:00,8.1,2.1,29.79,NE,54,0.0,0.0,76,0.00,,OVC200,0.00,0.00,VWS V14.01,2013-02-17 10:54:00,
2013-02-17 04:59:00,7.9,1.9,29.79,NE,54,0.0,0.0,76,0.00,,OVC200,0.00,0.00,VWS V14.01,2013-02-17 10:59:00,
2013-02-17 05:00:00,7.9,2.2,29.79,NE,54,0.0,0.0,77,0.00,,OVC075,0.00,0.00,VWS V15.00,2013-02-17 11:00:00,
2013-02-17 05:04:00,7.9,2.2,29.79,NE,54,0.0,0.0,77,0.00,,OVC200,0.00,0.00,VWS V14.01,2013-02-17 11:04:00,
2013-02-17 05:09:00,7.9,2.2,29.79,NE,54,0.0,0.0,77,0.00,,OVC200,0.00,0.00,VWS V14.01,2013-02-17 11:09:00,
2013-02-17 05:14:00,7.7,2.0,29.79,NE,54,0.0,0.0,77,0.00,,OVC200,0.00,0.00,VWS V14.01,2013-02-17 11:14:00,
2013-02-17 05:19:00,7.7,2.0,29.78,NE,54,0.0,0.0,77,0.00,,OVC200,0.00,0.00,VWS V14.01,2013-02-17 11:19:00,
2013-02-17 05:24:00,7.7,2.3,29.78,NE,54,0.0,0.0,78,0.00,,OVC200,0.00,0.00,VWS V14.01,2013-02-17 11:24:00,
2013-02-17 05:29:00,7.9,2.5,29.78,NE,54,0.0,0.0,78,0.00,,OVC200,0.00,0.00,VWS V14.01,2013-02-17 11:29:00,
2013-02-17 05:30:00,8.1,2.7,29.78,NE,54,0.0,0.0,78,0.00,,OVC075,0.00,0.00,VWS V15.00,2013-02-17 11:30:00,
2013-02-17 05:34:00,8.1,2.7,29.78,NE,54,0.0,0.0,78,0.00,,OVC200,0.00,0.00,VWS V14.01,2013-02-17 11:34:00,
2013-02-17 05:39:00,8.4,3.2,29.78,NE,54,0.0,0.0,79,0.00,,OVC200,0.00,0.00,VWS V14.01,2013-02-17 11:39:00,
2013-02-17 05:44:00,8.8,3.6,29.78,NE,54,0.0,3.0,79,0.00,,OVC200,0.00,0.00,VWS V14.01,2013-02-17 11:44:00,
2013-02-17 05:49:00,9.2,4.0,29.77,NE,53,1.0,3.0,79,0.00,,OVC200,0.00,0.00,VWS V14.01,2013-02-17 11:49:00,
2013-02-17 05:54:00,9.9,5.0,29.77,NW,310,0.0,6.0,80,0.00,,OVC200,0.00,0.00,VWS V14.01,2013-02-17 11:54:00,
2013-02-17 05:59:00,10.5,5.6,29.77,NW,314,0.0,6.0,80,0.00,,OVC200,0.00,0.00,VWS V14.01,2013-02-17 11:59:00,
2013-02-17 06:00:00,10.9,5.9,29.77,NW,320,0.0,6.0,80,0.00,,OVC075,0.00,0.00,VWS V15.00,2013-02-17 12:00:00,
2013-02-17 06:04:00,10.9,5.9,29.77,NW,320,0.0,6.0,80,0.00,,OVC200,0.00,0.00,VWS V14.01,2013-02-17 12:04:00,
2013-02-17 06:09:00,11.2,6.0,29.77,NW,320,0.0,1.0,79,0.00,,OVC200,0.00,0.00,VWS V14.01,2013-02-17 12:09:00,
2013-02-17 06:14:00,11.2,6.0,29.77,NW,320,0.0,2.0,79,0.00,,OVC200,0.00,0.00,VWS V14.01,2013-02-17 12:14:00,
2013-02-17 06:19:00,11.2,6.0,29.77,NW,320,0.0,2.0,79,0.00,,OVC200,0.00,0.00,VWS V14.01,2013-02-17 12:19:00,
2013-02-17 06:24:00,11.2,6.0,29.77,NW,320,1.0,2.0,79,0.00,,OVC200,0.00,0.00,VWS V14.01,2013-02-17 12:24:00,
2013-02-17 06:29:00,11.2,6.0,29.77,NW,320,0.0,2.0,79,0.00,,OVC200,0.00,0.00,VWS V14.01,2013-02-17 12:29:00,
2013-02-17 06:30:00,11.4,6.2,29.76,NW,320,0.0,2.0,79,0.00,,OVC075,0.00,0.00,VWS V15.00,2013-02-17 12:30:00,
2013-02-17 06:34:00,11.4,6.2,29.76,NW,320,0.0,0.0,79,0.00,,OVC200,0.00,0.00,VWS V14.01,2013-02-17 12:34:00,
2013-02-17 06:39:00,11.7,6.5,29.76,NW,319,0.0,2.0,79,0.00,,OVC200,0.00,0.00,VWS V14.01,2013-02-17 12:39:00,
2013-02-17 06:44:00,12.1,6.8,29.76,North,9,0.0,4.0,79,0.00,,OVC200,0.00,0.00,VWS V14.01,2013-02-17 12:44:00,
2013-02-17 06:49:00,12.3,7.0,29.75,North,10,0.0,4.0,79,0.00,,OVC200,0.00,0.00,VWS V14.01,2013-02-17 12:49:00,
2013-02-17 06:54:00,12.3,7.0,29.75,NNW,341,0.0,4.0,79,0.00,,OVC200,0.00,0.00,VWS V14.01,2013-02-17 12:54:00,
2013-02-17 06:59:00,12.4,7.1,29.75,NNW,332,0.0,4.0,79,0.00,,OVC200,0.00,0.00,VWS V14.01,2013-02-17 12:59:00,
2013-02-17 07:00:00,12.4,7.1,29.74,NNW,331,0.0,4.0,79,0.00,,OVC075,0.00,5.00,VWS V15.00,2013-02-17 13:00:00,
2013-02-17 07:04:00,12.4,7.1,29.74,NNW,331,0.0,4.0,79,0.00,,OVC200,0.00,5.00,VWS V14.01,2013-02-17 13:04:00,
2013-02-17 07:09:00,12.4,7.1,29.74,NW,323,0.0,3.0,79,0.00,,OVC200,0.00,7.00,VWS V14.01,2013-02-17 13:09:00,
2013-02-17 07:14:00,12.8,7.5,29.74,ENE,70,1.0,4.0,79,0.00,,OVC200,0.00,9.00,VWS V14.01,2013-02-17 13:14:00,
2013-02-17 07:19:00,12.9,7.6,29.73,NE,52,0.0,6.0,79,0.00,,OVC200,0.00,11.00,VWS V14.01,2013-02-17 13:19:00,
2013-02-17 07:24:00,12.9,7.6,29.73,NE,53,2.0,6.0,79,0.00,,OVC200,0.00,18.00,VWS V14.01,2013-02-17 13:24:00,
2013-02-17 07:29:00,13.1,7.8,29.73,NW,306,0.0,6.0,79,0.00,,OVC200,0.00,21.00,VWS V14.01,2013-02-17 13:29:00,
2013-02-17 07:30:00,13.5,8.2,29.73,NE,55,1.0,6.0,79,0.00,,OVC075,0.00,23.00,VWS V15.00,2013-02-17 13:30:00,
2013-02-17 07:34:00,13.5,8.2,29.73,NE,55,1.0,6.0,79,0.00,,OVC200,0.00,23.00,VWS V14.01,2013-02-17 13:34:00,
2013-02-17 07:39:00,13.8,8.5,29.73,NE,55,0.0,4.0,79,0.00,,OVC200,0.00,26.00,VWS V14.01,2013-02-17 13:39:00,
2013-02-17 07:44:00,14.0,8.7,29.73,NE,44,3.0,6.0,79,0.00,,OVC200,0.00,32.00,VWS V14.01,2013-02-17 13:44:00,
2013-02-17 07:49:00,14.3,9.0,29.73,ENE,65,2.0,7.0,79,0.00,,OVC200,0.00,33.00,VWS V14.01,2013-02-17 13:49:00,
2013-02-17 07:54:00,14.4,9.1,29.73,ENE,61,3.0,7.0,79,0.00,,OVC200,0.00,35.00,VWS V14.01,2013-02-17 13:54:00,
2013-02-17 07:55:00,14.6,9.3,29.73,ENE,59,2.0,7.0,79,0.00,,OVC200,0.00,35.00,VWS V14.01,2013-02-17 13:55:00,
2013-02-17 08:00:00,14.6,9.0,29.73,WNW,299,0.0,7.0,78,0.00,,OVC200,0.00,39.00,VWS V14.01,2013-02-17 14:00:00,
2013-02-17 08:05:00,14.8,9.2,29.73,ENE,60,2.0,3.0,78,0.00,,OVC200,0.00,40.00,VWS V14.01,2013-02-17 14:05:00,
2013-02-17 08:10:00,14.9,9.3,29.73,NNE,25,1.0,4.0,78,0.00,,OVC200,0.00,47.00,VWS V14.01,2013-02-17 14:10:00,
2013-02-17 08:15:00,15.1,9.5,29.73,NE,50,3.0,9.0,78,0.00,,OVC200,0.00,58.00,VWS V14.01,2013-02-17 14:15:00,
2013-02-17 08:20:00,15.4,9.8,29.73,ENE,59,4.0,9.0,78,0.00,,OVC200,0.00,67.00,VWS V14.01,2013-02-17 14:20:00,
2013-02-17 08:25:00,15.6,10.0,29.73,East,80,4.0,9.0,78,0.00,,OVC200,0.00,70.00,VWS V14.01,2013-02-17 14:25:00,
2013-02-17 08:30:00,15.9,10.3,29.73,East,99,0.0,9.0,78,0.00,,OVC200,0.00,77.00,VWS V14.01,2013-02-17 14:30:00,
2013-02-17 08:35:00,16.1,10.2,29.72,East,96,1.0,4.0,77,0.00,,OVC200,0.00,81.00,VWS V14.01,2013-02-17 14:35:00,
2013-02-17 08:40:00,16.4,10.5,29.72,East,84,0.0,5.0,77,0.00,,OVC200,0.00,81.00,VWS V14.01,2013-02-17 14:40:00,
2013-02-17 08:45:00,16.5,10.6,29.72,East,101,0.0,5.0,77,0.00,,OVC200,0.00,88.00,VWS V14.01,2013-02-17 14:45:00,
2013-02-17 08:50:00,16.9,10.7,29.72,ENE,68,2.0,7.0,76,0.00,,OVC200,0.00,107.00,VWS V14.01,2013-02-17 14:50:00,
2013-02-17 08:55:00,17.2,10.9,29.72,NW,322,0.0,9.0,76,0.00,,OVC200,0.00,118.00,VWS V14.01,2013-02-17 14:55:00,
2013-02-17 09:00:00,17.5,11.2,29.72,East,89,3.0,9.0,76,0.00,,OVC200,0.00,127.00,VWS V14.01,2013-02-17 15:00:00,
2013-02-17 09:05:00,17.8,11.5,29.72,NE,48,1.0,3.0,76,0.00,,OVC200,0.00,139.00,VWS V14.01,2013-02-17 15:05:00,
2013-02-17 09:10:00,18.1,11.5,29.72,NE,55,0.0,4.0,75,0.00,,OVC200,0.00,185.00,VWS V14.01,2013-02-17 15:10:00,
2013-02-17 09:15:00,18.4,11.8,29.72,ENE,58,1.0,6.0,75,0.00,,OVC200,0.00,200.00,VWS V14.01,2013-02-17 15:15:00,
2013-02-17 09:20:00,18.8,11.9,29.71,ENE,66,0.0,6.0,74,0.00,,OVC200,0.00,167.00,VWS V14.01,2013-02-17 15:20:00,
2013-02-17 09:25:00,18.9,12.0,29.71,ENE,63,0.0,7.0,74,0.00,,OVC200,0.00,178.00,VWS V14.01,2013-02-17 15:25:00,
2013-02-17 09:30:00,19.1,12.2,29.71,ENE,59,5.0,7.0,74,0.00,,OVC200,0.00,213.00,VWS V14.01,2013-02-17 15:30:00,
2013-02-17 09:35:00,19.5,12.3,29.71,ESE,102,1.0,5.0,73,0.00,,OVC200,0.00,339.00,VWS V14.01,2013-02-17 15:35:00,
2013-02-17 09:40:00,20.0,12.4,29.71,ENE,65,2.0,7.0,72,0.00,,OVC200,0.00,332.00,VWS V14.01,2013-02-17 15:40:00,
2013-02-17 09:45:00,20.5,12.9,29.71,NE,51,2.0,7.0,72,0.00,,OVC200,0.00,352.00,VWS V14.01,2013-02-17 15:45:00,
2013-02-17 09:50:00,21.1,13.2,29.70,NNE,22,3.0,7.0,71,0.00,,OVC200,0.00,378.00,VWS V14.01,2013-02-17 15:50:00,
2013-02-17 09:55:00,21.8,13.5,29.70,West,265,0.0,7.0,70,0.00,,OVC200,0.00,380.00,VWS V14.01,2013-02-17 15:55:00,
2013-02-17 10:00:00,22.1,13.5,29.70,NNE,16,3.0,8.0,69,0.00,,OVC200,0.00,385.00,VWS V14.01,2013-02-17 16:00:00,
2013-02-17 10:05:00,22.4,13.8,29.69,NE,55,1.0,9.0,69,0.00,,OVC200,0.00,369.00,VWS V14.01,2013-02-17 16:05:00,
2013-02-17 10:10:00,22.7,13.7,29.69,West,271,3.0,11.0,68,0.00,,OVC200,0.00,418.00,VWS V14.01,2013-02-17 16:10:00,
2013-02-17 10:15:00,23.3,14.3,29.69,ENE,67,3.0,11.0,68,0.00,,OVC200,0.00,439.00,VWS V14.01,2013-02-17 16:15:00,
2013-02-17 10:20:00,23.9,14.6,29.69,NNE,22,2.0,11.0,67,0.00,,OVC200,0.00,330.00,VWS V14.01,2013-02-17 16:20:00,
2013-02-17 10:25:00,24.1,14.7,29.69,ENE,61,0.0,11.0,67,0.00,,OVC200,0.00,304.00,VWS V14.01,2013-02-17 16:25:00,
2013-02-17 10:30:00,24.4,14.7,29.69,NNE,25,0.0,11.0,66,0.00,,OVC200,0.00,359.00,VWS V14.01,2013-02-17 16:30:00,
2013-02-17 10:35:00,25.0,14.9,29.68,ENE,57,3.0,10.0,65,0.00,,OVC200,0.00,403.00,VWS V14.01,2013-02-17 16:35:00,
2013-02-17 10:40:00,25.4,14.9,29.68,ENE,69,0.0,10.0,64,0.00,,OVC200,0.00,443.00,VWS V14.01,2013-02-17 16:40:00,
2013-02-17 10:45:00,25.7,15.2,29.68,NE,53,3.0,10.0,64,0.00,,OVC200,0.00,469.00,VWS V14.01,2013-02-17 16:45:00,
2013-02-17 10:50:00,26.0,15.1,29.68,NE,35,2.0,10.0,63,0.00,,OVC200,0.00,436.00,VWS V14.01,2013-02-17 16:50:00,
2013-02-17 10:55:00,26.3,15.4,29.68,ENE,67,4.0,10.0,63,0.00,,OVC200,0.00,420.00,VWS V14.01,2013-02-17 16:55:00,
2013-02-17 11:00:00,26.4,15.5,29.68,ENE,63,1.0,11.0,63,0.00,,OVC200,0.00,496.00,VWS V14.01,2013-02-17 17:00:00,
2013-02-17 11:05:00,26.9,16.0,29.68,ENE,69,0.0,5.0,63,0.00,,OVC200,0.00,464.00,VWS V14.01,2013-02-17 17:05:00,
2013-02-17 11:10:00,27.2,15.9,29.68,NNE,32,9.0,11.0,62,0.00,,OVC200,0.00,457.00,VWS V14.01,2013-02-17 17:10:00,
2013-02-17 11:15:00,27.3,16.0,29.68,ENE,61,2.0,11.0,62,0.00,,OVC200,0.00,483.00,VWS V14.01,2013-02-17 17:15:00,
2013-02-17 11:20:00,27.8,16.5,29.68,NE,53,4.0,11.0,62,0.00,,OVC200,0.00,478.00,VWS V14.01,2013-02-17 17:20:00,
2013-02-17 11:25:00,28.2,16.9,29.68,ENE,71,7.0,11.0,62,0.00,,OVC200,0.00,420.00,VWS V14.01,2013-02-17 17:25:00,
2013-02-17 11:30:00,27.9,16.2,29.68,East,79,0.0,11.0,61,0.00,,OVC200,0.00,411.00,VWS V14.01,2013-02-17 17:30:00,
2013-02-17 11:35:00,28.2,16.5,29.67,ENE,71,6.0,7.0,61,0.00,,OVC200,0.00,429.00,VWS V14.01,2013-02-17 17:35:00,
2013-02-17 11:40:00,28.8,17.1,29.67,NNW,340,2.0,7.0,61,0.00,,OVC200,0.00,450.00,VWS V14.01,2013-02-17 17:40:00,
2013-02-17 11:45:00,29.3,17.1,29.67,ENE,75,3.0,10.0,60,0.00,,OVC200,0.00,510.00,VWS V14.01,2013-02-17 17:45:00,
2013-02-17 11:50:00,29.5,17.3,29.66,ENE,74,8.0,10.0,60,0.00,,OVC200,0.00,510.00,VWS V14.01,2013-02-17 17:50:00,
2013-02-17 11:55:00,29.7,17.1,29.66,NNE,32,4.0,11.0,59,0.00,,OVC200,0.00,475.00,VWS V14.01,2013-02-17 17:55:00,
2013-02-17 12:00:00,30.0,17.4,29.66,ENE,66,4.0,11.0,59,0.00,,OVC200,0.00,436.00,VWS V14.01,2013-02-17 18:00:00,
2013-02-17 12:05:00,30.3,17.7,29.64,East,80,4.0,7.0,59,0.00,,OVC200,0.00,425.00,VWS V14.01,2013-02-17 18:05:00,
2013-02-17 12:10:00,30.4,17.4,29.64,North,360,2.0,10.0,58,0.00,,OVC200,0.00,413.00,VWS V14.01,2013-02-17 18:10:00,
2013-02-17 12:15:00,30.3,17.7,29.64,NW,316,0.0,10.0,59,0.00,,OVC200,0.00,371.00,VWS V14.01,2013-02-17 18:15:00,
2013-02-17 12:20:00,30.3,17.7,29.63,ENE,61,2.0,10.0,59,0.00,,OVC200,0.00,378.00,VWS V14.01,2013-02-17 18:20:00,
2013-02-17 12:25:00,30.6,18.0,29.63,WNW,293,0.0,10.0,59,0.00,,OVC200,0.00,420.00,VWS V14.01,2013-02-17 18:25:00,
2013-02-17 12:30:00,31.2,18.5,29.63,ENE,71,3.0,10.0,59,0.00,,OVC200,0.00,450.00,VWS V14.01,2013-02-17 18:30:00,
2013-02-17 12:35:00,31.3,18.6,29.62,ENE,65,0.0,2.0,59,0.00,,OVC200,0.00,464.00,VWS V14.01,2013-02-17 18:35:00,
2013-02-17 12:40:00,31.3,18.2,29.62,ENE,69,4.0,8.0,58,0.00,,OVC200,0.00,461.00,VWS V14.01,2013-02-17 18:40:00,
2013-02-17 12:45:00,31.0,18.0,29.62,NE,52,3.0,12.0,58,0.00,,OVC200,0.00,436.00,VWS V14.01,2013-02-17 18:45:00,
2013-02-17 12:50:00,30.9,17.9,29.61,ENE,68,1.0,13.0,58,0.00,,OVC200,0.00,512.00,VWS V14.01,2013-02-17 18:50:00,
2013-02-17 12:55:00,31.2,18.5,29.61,ENE,64,4.0,14.0,59,0.00,,OVC200,0.00,492.00,VWS V14.01,2013-02-17 18:55:00,
2013-02-17 13:00:00,31.6,18.9,29.61,ENE,73,4.0,14.0,59,0.00,,OVC200,0.00,466.00,VWS V14.01,2013-02-17 19:00:00,
2013-02-17 13:05:00,31.6,18.5,29.60,East,87,5.0,12.0,58,0.00,,OVC200,0.00,487.00,VWS V14.01,2013-02-17 19:05:00,
2013-02-17 13:10:00,31.9,19.2,29.60,North,360,2.0,12.0,59,0.00,,OVC200,0.00,476.00,VWS V14.01,2013-02-17 19:10:00,
2013-02-17 13:15:00,32.2,18.7,29.60,ENE,57,0.0,12.0,57,0.00,,OVC200,0.00,512.00,VWS V14.01,2013-02-17 19:15:00,
2013-02-17 13:20:00,32.5,19.4,29.59,WSW,242,2.0,12.0,58,0.00,,OVC200,0.00,394.00,VWS V14.01,2013-02-17 19:20:00,
2013-02-17 13:25:00,32.5,19.4,29.59,SSW,195,3.0,12.0,58,0.00,,OVC200,0.00,376.00,VWS V14.01,2013-02-17 19:25:00,
2013-02-17 13:30:00,32.2,19.1,29.59,NNE,21,2.0,12.0,58,0.00,,OVC200,0.00,431.00,VWS V14.01,2013-02-17 19:30:00,
2013-02-17 13:35:00,32.4,19.7,29.58,ENE,69,3.0,4.0,59,0.00,,OVC200,0.00,496.00,VWS V14.01,2013-02-17 19:35:00,
2013-02-17 13:40:00,32.2,19.5,29.58,NNW,342,1.0,10.0,59,0.00,,OVC200,0.00,418.00,VWS V14.01,2013-02-17 19:40:00,
2013-02-17 13:45:00,32.2,19.5,29.58,NNW,336,0.0,10.0,59,0.00,,OVC200,0.00,390.00,VWS V14.01,2013-02-17 19:45:00,
2013-02-17 13:50:00,32.2,19.5,29.57,SW,233,3.0,10.0,59,0.00,,OVC200,0.00,452.00,VWS V14.01,2013-02-17 19:50:00,
2013-02-17 13:55:00,32.7,20.0,29.57,ESE,103,4.0,10.0,59,0.00,,OVC200,0.00,499.00,VWS V14.01,2013-02-17 19:55:00,
2013-02-17 14:00:00,32.5,19.8,29.57,West,260,3.0,11.0,59,0.00,,OVC200,0.00,452.00,VWS V14.01,2013-02-17 20:00:00,
2013-02-17 14:05:00,32.8,20.5,29.57,WNW,299,0.0,6.0,60,0.01,,OVC200,0.01,406.00,VWS V14.01,2013-02-17 20:05:00,
2013-02-17 14:10:00,32.7,20.0,29.57,NNW,340,10.0,13.0,59,0.01,,OVC200,0.01,385.00,VWS V14.01,2013-02-17 20:10:00,
2013-02-17 14:15:00,32.7,20.4,29.57,NW,304,4.0,13.0,60,0.01,,OVC200,0.01,392.00,VWS V14.01,2013-02-17 20:15:00,
2013-02-17 14:20:00,32.9,20.5,29.56,NW,313,0.0,13.0,60,0.01,,OVC200,0.01,359.00,VWS V14.01,2013-02-17 20:20:00,
2013-02-17 14:25:00,32.7,20.4,29.56,WNW,300,0.0,13.0,60,0.01,,OVC200,0.01,360.00,VWS V14.01,2013-02-17 20:25:00,
2013-02-17 14:30:00,32.7,20.8,29.56,ENE,63,1.0,13.0,61,0.01,,OVC200,0.01,339.00,VWS V14.01,2013-02-17 20:30:00,
2013-02-17 14:35:00,32.5,20.2,29.54,NW,323,2.0,6.0,60,0.01,,OVC200,0.01,355.00,VWS V14.01,2013-02-17 20:35:00,
2013-02-17 14:40:00,32.5,20.6,29.54,NE,34,1.0,6.0,61,0.01,,OVC200,0.01,360.00,VWS V14.01,2013-02-17 20:40:00,
2013-02-17 14:45:00,32.5,20.6,29.54,East,85,1.0,14.0,61,0.01,,OVC200,0.01,332.00,VWS V14.01,2013-02-17 20:45:00,
2013-02-17 14:50:00,32.5,20.6,29.53,WNW,289,2.0,14.0,61,0.01,,OVC200,0.01,329.00,VWS V14.01,2013-02-17 20:50:00,
2013-02-17 14:55:00,32.4,20.5,29.53,East,86,6.0,14.0,61,0.01,,OVC200,0.01,299.00,VWS V14.01,2013-02-17 20:55:00,
2013-02-17 15:00:00,32.4,20.9,29.53,WNW,301,3.0,14.0,62,0.01,,OVC200,0.01,302.00,VWS V14.01,2013-02-17 21:00:00,
2013-02-17 15:05:00,32.2,20.7,29.53,ENE,68,3.0,6.0,62,0.00,,OVC200,0.01,262.00,VWS V14.01,2013-02-17 21:05:00,
2013-02-17 15:10:00,32.2,21.0,29.53,WNW,294,1.0,10.0,63,0.00,,OVC200,0.01,227.00,VWS V14.01,2013-02-17 21:10:00,
2013-02-17 15:15:00,32.2,20.7,29.53,NE,40,1.0,11.0,62,0.00,,OVC200,0.01,227.00,VWS V14.01,2013-02-17 21:15:00,
2013-02-17 15:20:00,32.2,21.0,29.53,West,271,3.0,11.0,63,0.00,,OVC200,0.01,237.00,VWS V14.01,2013-02-17 21:20:00,
2013-02-17 15:25:00,32.4,20.9,29.53,West,270,3.0,11.0,62,0.00,,OVC200,0.01,250.00,VWS V14.01,2013-02-17 21:25:00,
2013-02-17 15:30:00,32.5,20.9,29.53,NW,311,4.0,11.0,62,0.00,,OVC200,0.01,257.00,VWS V14.01,2013-02-17 21:30:00,
2013-02-17 15:35:00,32.7,21.1,29.52,North,10,0.0,0.0,62,0.00,,OVC200,0.01,269.00,VWS V14.01,2013-02-17 21:35:00,
2013-02-17 15:40:00,32.8,21.2,29.52,WNW,284,0.0,7.0,62,0.00,,OVC200,0.01,246.00,VWS V14.01,2013-02-17 21:40:00,
2013-02-17 15:45:00,32.8,21.2,29.52,WNW,292,3.0,10.0,62,0.00,,OVC200,0.01,218.00,VWS V14.01,2013-02-17 21:45:00,
2013-02-17 15:50:00,32.7,21.1,29.50,ENE,57,4.0,10.0,62,0.00,,OVC200,0.01,209.00,VWS V14.01,2013-02-17 21:50:00,
2013-02-17 15:55:00,32.5,21.3,29.50,NNE,30,4.0,13.0,63,0.00,,OVC200,0.01,186.00,VWS V14.01,2013-02-17 21:55:00,
2013-02-17 16:00:00,32.4,21.2,29.50,North,360,3.0,13.0,63,0.00,,OVC200,0.01,167.00,VWS V14.01,2013-02-17 22:00:00,
2013-02-17 16:05:00,32.2,21.0,29.49,NE,51,2.0,6.0,63,0.00,,OVC200,0.01,181.00,VWS V14.01,2013-02-17 22:05:00,
2013-02-17 16:10:00,32.2,21.4,29.49,WNW,290,1.0,7.0,64,0.00,,OVC200,0.01,176.00,VWS V14.01,2013-02-17 22:10:00,
2013-02-17 16:15:00,32.2,21.4,29.49,WSW,237,2.0,13.0,64,0.00,,OVC200,0.01,167.00,VWS V14.01,2013-02-17 22:15:00,
2013-02-17 16:20:00,32.2,21.4,29.48,ENE,67,6.0,16.0,64,0.00,,OVC200,0.01,160.00,VWS V14.01,2013-02-17 22:20:00,
2013-02-17 16:25:00,32.2,21.4,29.48,NE,38,3.0,16.0,64,0.00,,OVC200,0.01,135.00,VWS V14.01,2013-02-17 22:25:00,
2013-02-17 16:29:00,32.2,21.4,29.48,NW,324,1.0,16.0,64,0.00,,OVC200,0.01,102.00,VWS V14.01,2013-02-17 22:29:00,
2013-02-17 16:30:00,32.1,21.3,29.47,ENE,72,3.0,16.0,64,0.00,,OVC075,0.01,91.00,VWS V15.00,2013-02-17 22:30:00,
2013-02-17 16:34:00,32.1,21.3,29.47,NE,40,4.0,7.0,64,0.00,,OVC200,0.01,90.00,VWS V14.01,2013-02-17 22:34:00,
2013-02-17 16:39:00,31.9,21.5,29.47,NW,324,3.0,9.0,65,0.00,,OVC200,0.01,81.00,VWS V14.01,2013-02-17 22:39:00,
2013-02-17 16:44:00,31.9,21.5,29.47,North,360,2.0,10.0,65,0.00,,OVC200,0.01,79.00,VWS V14.01,2013-02-17 22:44:00,
2013-02-17 16:49:00,31.9,21.5,29.47,NNE,33,2.0,10.0,65,0.00,,OVC200,0.01,83.00,VWS V14.01,2013-02-17 22:49:00,
2013-02-17 16:54:00,31.8,21.4,29.47,WNW,301,4.0,16.0,65,0.00,,OVC200,0.01,70.00,VWS V14.01,2013-02-17 22:54:00,
2013-02-17 16:59:00,31.6,21.6,29.47,ENE,67,3.0,16.0,66,0.00,,OVC200,0.01,53.00,VWS V14.01,2013-02-17 22:59:00,
2013-02-17 17:00:00,31.5,21.5,29.47,SW,226,2.0,16.0,66,0.00,,OVC075,0.01,37.00,VWS V15.00,2013-02-17 23:00:00,
2013-02-17 17:04:00,31.5,21.5,29.47,NNW,345,5.0,7.0,66,0.00,,OVC200,0.01,35.00,VWS V14.01,2013-02-17 23:04:00,
2013-02-17 17:09:00,31.3,21.3,29.47,ENE,57,4.0,12.0,66,0.00,,OVC200,0.01,25.00,VWS V14.01,2013-02-17 23:09:00,
2013-02-17 17:14:00,31.3,21.3,29.47,NW,314,0.0,15.0,66,0.00,,OVC200,0.01,21.00,VWS V14.01,2013-02-17 23:14:00,
2013-02-17 17:19:00,31.2,21.5,29.47,NE,49,1.0,15.0,67,0.00,,OVC200,0.01,19.00,VWS V14.01,2013-02-17 23:19:00,
2013-02-17 17:24:00,31.2,21.5,29.47,ESE,108,1.0,15.0,67,0.00,,OVC200,0.01,16.00,VWS V14.01,2013-02-17 23:24:00,
2013-02-17 17:29:00,31.0,21.3,29.47,North,360,3.0,15.0,67,0.00,,OVC200,0.01,12.00,VWS V14.01,2013-02-17 23:29:00,
2013-02-17 17:30:00,31.0,21.3,29.45,West,281,3.0,15.0,67,0.00,,OVC075,0.01,7.00,VWS V15.00,2013-02-17 23:30:00,
2013-02-17 17:34:00,31.0,21.3,29.45,NW,305,0.0,3.0,67,0.00,,OVC200,0.01,7.00,VWS V14.01,2013-02-17 23:34:00,
2013-02-17 17:39:00,30.9,21.6,29.45,ENE,60,5.0,14.0,68,0.00,,OVC200,0.01,0.00,VWS V14.01,2013-02-17 23:39:00,
2013-02-17 17:44:00,30.7,21.4,29.45,WNW,291,4.0,14.0,68,0.00,,OVC200,0.01,0.00,VWS V14.01,2013-02-17 23:44:00,
2013-02-17 17:49:00,30.7,21.8,29.45,NNW,327,3.0,14.0,69,0.00,,OVC200,0.01,0.00,VWS V14.01,2013-02-17 23:49:00,
2013-02-17 17:54:00,30.7,21.8,29.45,WNW,284,4.0,14.0,69,0.00,,OVC200,0.01,0.00,VWS V14.01,2013-02-17 23:54:00,
2013-02-17 17:59:00,30.6,21.6,29.45,WNW,287,2.0,14.0,69,0.00,,OVC200,0.01,0.00,VWS V14.01,2013-02-17 23:59:00,
2013-02-17 18:00:00,30.6,21.6,29.44,NW,317,2.0,14.0,69,0.00,,OVC075,0.01,0.00,VWS V15.00,2013-02-18 00:00:00,
2013-02-17 18:04:00,30.6,21.6,29.44,NW,312,4.0,4.0,69,0.00,,OVC200,0.01,0.00,VWS V14.01,2013-02-18 00:04:00,
2013-02-17 18:09:00,30.6,21.6,29.44,WNW,287,1.0,7.0,69,0.00,,OVC200,0.01,0.00,VWS V14.01,2013-02-18 00:09:00,
2013-02-17 18:14:00,30.4,21.5,29.44,West,259,4.0,7.0,69,0.00,,OVC200,0.01,0.00,VWS V14.01,2013-02-18 00:14:00,
2013-02-17 18:19:00,30.4,21.5,29.44,NNW,341,1.0,14.0,69,0.00,,OVC200,0.01,0.00,VWS V14.01,2013-02-18 00:19:00,
2013-02-17 18:24:00,30.3,21.7,29.44,NNW,333,3.0,15.0,70,0.00,,OVC200,0.01,0.00,VWS V14.01,2013-02-18 00:24:00,
2013-02-17 18:29:00,30.3,21.7,29.44,ENE,76,1.0,15.0,70,0.00,,OVC200,0.01,0.00,VWS V14.01,2013-02-18 00:29:00,
2013-02-17 18:30:00,30.3,21.7,29.44,North,360,5.0,15.0,70,0.00,,OVC075,0.01,0.00,VWS V15.00,2013-02-18 00:30:00,
2013-02-17 18:34:00,30.1,21.5,29.44,ENE,75,2.0,7.0,70,0.00,,OVC200,0.01,0.00,VWS V14.01,2013-02-18 00:34:00,
2013-02-17 18:39:00,30.1,21.5,29.44,East,86,4.0,7.0,70,0.00,,OVC200,0.01,0.00,VWS V14.01,2013-02-18 00:39:00,
2013-02-17 18:44:00,30.1,21.5,29.44,NE,55,2.0,10.0,70,0.00,,OVC200,0.01,0.00,VWS V14.01,2013-02-18 00:44:00,
2013-02-17 18:49:00,30.1,21.9,29.43,West,281,4.0,12.0,71,0.00,,OVC200,0.01,0.00,VWS V14.01,2013-02-18 00:49:00,
2013-02-17 18:54:00,30.1,21.9,29.43,North,360,3.0,12.0,71,0.00,,OVC200,0.01,0.00,VWS V14.01,2013-02-18 00:54:00,
2013-02-17 18:59:00,30.0,21.8,29.43,WNW,284,4.0,12.0,71,0.00,,OVC200,0.01,0.00,VWS V14.01,2013-02-18 00:59:00,
2013-02-17 19:00:00,30.1,21.9,29.44,ENE,64,0.0,12.0,71,0.00,,OVC075,0.01,0.00,VWS V15.00,2013-02-18 01:00:00,
2013-02-17 19:04:00,30.1,21.9,29.44,NW,312,3.0,3.0,71,0.00,,OVC200,0.01,0.00,VWS V14.01,2013-02-18 01:04:00,
2013-02-17 19:09:00,30.0,21.8,29.44,WNW,302,0.0,9.0,71,0.00,,OVC200,0.01,0.00,VWS V14.01,2013-02-18 01:09:00,
2013-02-17 19:14:00,30.1,21.9,29.44,NE,55,2.0,9.0,71,0.00,,OVC200,0.01,0.00,VWS V14.01,2013-02-18 01:14:00,
2013-02-17 19:19:00,30.1,21.9,29.43,WNW,301,0.0,9.0,71,0.00,,OVC200,0.01,0.00,VWS V14.01,2013-02-18 01:19:00,
2013-02-17 19:24:00,30.1,21.9,29.43,NW,323,2.0,9.0,71,0.00,,OVC200,0.01,0.00,VWS V14.01,2013-02-18 01:24:00,
2013-02-17 19:29:00,30.0,22.1,29.43,NW,319,0.0,9.0,72,0.00,,OVC200,0.01,0.00,VWS V14.01,2013-02-18 01:29:00,
2013-02-17 19:30:00,30.0,22.1,29.44,NNW,330,0.0,9.0,72,0.00,,OVC065,0.01,0.00,VWS V15.00,2013-02-18 01:30:00,
2013-02-17 19:34:00,30.0,22.1,29.44,WNW,296,2.0,2.0,72,0.00,,OVC200,0.01,0.00,VWS V14.01,2013-02-18 01:34:00,
2013-02-17 19:39:00,30.0,22.1,29.44,East,83,3.0,4.0,72,0.00,,OVC200,0.01,0.00,VWS V14.01,2013-02-18 01:39:00,
2013-02-17 19:44:00,30.0,22.1,29.44,NNW,340,2.0,10.0,72,0.00,,OVC200,0.01,0.00,VWS V14.01,2013-02-18 01:44:00,
2013-02-17 19:49:00,30.1,22.2,29.44,NE,48,0.0,10.0,72,0.00,,OVC200,0.01,0.00,VWS V14.01,2013-02-18 01:49:00,
2013-02-17 19:54:00,30.0,22.1,29.44,West,266,1.0,10.0,72,0.00,,OVC200,0.01,0.00,VWS V14.01,2013-02-18 01:54:00,
2013-02-17 19:59:00,30.0,22.1,29.44,NW,306,4.0,10.0,72,0.00,,OVC200,0.01,0.00,VWS V14.01,2013-02-18 01:59:00,
2013-02-17 20:00:00,30.0,22.1,29.42,NW,316,1.0,10.0,72,0.00,,OVC075,0.01,0.00,VWS V15.00,2013-02-18 02:00:00,
2013-02-17 20:04:00,30.0,22.1,29.42,NW,315,1.0,2.0,72,0.00,,OVC200,0.01,0.00,VWS V14.01,2013-02-18 02:04:00,
2013-02-17 20:09:00,30.0,22.1,29.42,NNE,24,0.0,4.0,72,0.00,,OVC200,0.01,0.00,VWS V14.01,2013-02-18 02:09:00,
2013-02-17 20:14:00,30.0,22.4,29.42,NNW,348,1.0,9.0,73,0.00,,OVC200,0.01,0.00,VWS V14.01,2013-02-18 02:14:00,
2013-02-17 20:19:00,30.0,22.4,29.42,NW,317,0.0,9.0,73,0.00,,OVC200,0.01,0.00,VWS V14.01,2013-02-18 02:19:00,
2013-02-17 20:24:00,30.0,22.4,29.42,WNW,295,1.0,9.0,73,0.00,,OVC200,0.01,0.00,VWS V14.01,2013-02-18 02:24:00,
2013-02-17 20:29:00,29.8,22.2,29.42,NNW,334,4.0,9.0,73,0.00,,OVC200,0.01,0.00,VWS V14.01,2013-02-18 02:29:00,
2013-02-17 20:30:00,29.8,22.2,29.42,North,360,4.0,11.0,73,0.00,,OVC075,0.01,0.00,VWS V15.00,2013-02-18 02:30:00,
2013-02-17 20:34:00,29.8,22.2,29.42,NW,320,2.0,4.0,73,0.00,,OVC200,0.01,0.00,VWS V14.01,2013-02-18 02:34:00,
2013-02-17 20:39:00,29.8,22.2,29.42,WNW,283,2.0,9.0,73,0.00,,OVC200,0.01,0.00,VWS V14.01,2013-02-18 02:39:00,
2013-02-17 20:44:00,29.8,22.2,29.42,NW,325,0.0,9.0,73,0.00,,OVC200,0.01,0.00,VWS V14.01,2013-02-18 02:44:00,
2013-02-17 20:49:00,29.8,22.2,29.42,WNW,294,1.0,10.0,73,0.00,,OVC200,0.01,0.00,VWS V14.01,2013-02-18 02:49:00,
2013-02-17 20:54:00,29.8,22.2,29.42,WNW,302,4.0,10.0,73,0.00,,OVC200,0.01,0.00,VWS V14.01,2013-02-18 02:54:00,
2013-02-17 20:59:00,29.8,22.2,29.42,NNW,340,1.0,11.0,73,0.00,,OVC200,0.01,0.00,VWS V14.01,2013-02-18 02:59:00,
2013-02-17 21:00:00,29.8,22.2,29.41,ENE,63,1.0,11.0,73,0.00,,OVC075,0.01,0.00,VWS V15.00,2013-02-18 03:00:00,
2013-02-17 21:04:00,29.8,22.2,29.41,ENE,59,5.0,6.0,73,0.00,,OVC200,0.01,0.00,VWS V14.01,2013-02-18 03:04:00,
2013-02-17 21:09:00,29.8,22.2,29.41,ENE,74,5.0,6.0,73,0.00,,OVC200,0.01,0.00,VWS V14.01,2013-02-18 03:09:00,
2013-02-17 21:14:00,29.8,22.2,29.41,WNW,300,1.0,6.0,73,0.00,,OVC200,0.01,0.00,VWS V14.01,2013-02-18 03:14:00,
2013-02-17 21:19:00,29.7,22.1,29.40,North,9,3.0,6.0,73,0.00,,OVC200,0.01,0.00,VWS V14.01,2013-02-18 03:19:00,
2013-02-17 21:24:00,29.7,22.1,29.40,NNE,25,0.0,6.0,73,0.00,,OVC200,0.01,0.00,VWS V14.01,2013-02-18 03:24:00,
2013-02-17 21:29:00,29.7,22.1,29.40,ENE,62,2.0,6.0,73,0.00,,OVC200,0.01,0.00,VWS V14.01,2013-02-18 03:29:00,
2013-02-17 21:30:00,29.7,21.8,29.40,NW,309,3.0,6.0,72,0.00,,OVC075,0.01,0.00,VWS V15.00,2013-02-18 03:30:00,
2013-02-17 21:34:00,29.7,21.8,29.40,North,360,5.0,6.0,72,0.00,,OVC200,0.01,0.00,VWS V14.01,2013-02-18 03:34:00,
2013-02-17 21:39:00,29.8,21.9,29.40,NNW,340,2.0,6.0,72,0.00,,OVC200,0.01,0.00,VWS V14.01,2013-02-18 03:39:00,
2013-02-17 21:44:00,30.0,22.1,29.40,WSW,252,2.0,6.0,72,0.00,,OVC200,0.01,0.00,VWS V14.01,2013-02-18 03:44:00,
2013-02-17 21:49:00,29.8,21.9,29.39,NNE,13,2.0,6.0,72,0.00,,OVC200,0.01,0.00,VWS V14.01,2013-02-18 03:49:00,
2013-02-17 21:54:00,30.0,22.1,29.39,NNW,336,3.0,7.0,72,0.00,,OVC200,0.01,0.00,VWS V14.01,2013-02-18 03:54:00,
2013-02-17 21:59:00,30.0,22.1,29.39,NNE,21,4.0,7.0,72,0.00,,OVC200,0.01,0.00,VWS V14.01,2013-02-18 03:59:00,
2013-02-17 22:00:00,30.0,22.1,29.38,NW,312,2.0,7.0,72,0.00,,OVC075,0.01,0.00,VWS V15.00,2013-02-18 04:00:00,
2013-02-17 22:04:00,30.0,22.1,29.38,NNW,334,2.0,2.0,72,0.00,,OVC200,0.01,0.00,VWS V14.01,2013-02-18 04:04:00,
2013-02-17 22:09:00,30.0,22.1,29.38,North,351,2.0,5.0,72,0.00,,OVC200,0.01,0.00,VWS V14.01,2013-02-18 04:09:00,
2013-02-17 22:14:00,30.0,22.1,29.38,NW,313,3.0,5.0,72,0.00,,OVC200,0.01,0.00,VWS V14.01,2013-02-18 04:14:00,
2013-02-17 22:19:00,30.1,22.2,29.37,NW,316,2.0,9.0,72,0.00,,OVC200,0.01,0.00,VWS V14.01,2013-02-18 04:19:00,
2013-02-17 22:24:00,30.1,21.9,29.37,NW,308,4.0,9.0,71,0.00,,OVC200,0.01,0.00,VWS V14.01,2013-02-18 04:24:00,
2013-02-17 22:29:00,30.1,21.9,29.37,SW,235,3.0,9.0,71,0.00,,OVC200,0.01,0.00,VWS V14.01,2013-02-18 04:29:00,
2013-02-17 22:30:00,30.1,21.9,29.37,NW,324,1.0,9.0,71,0.00,,OVC075,0.01,0.00,VWS V15.00,2013-02-18 04:30:00,
2013-02-17 22:34:00,30.1,21.9,29.37,NW,318,3.0,3.0,71,0.00,,OVC200,0.01,0.00,VWS V14.01,2013-02-18 04:34:00,
2013-02-17 22:39:00,30.1,21.9,29.37,NE,46,3.0,6.0,71,0.00,,OVC200,0.01,0.00,VWS V14.01,2013-02-18 04:39:00,
2013-02-17 22:44:00,30.3,22.0,29.37,WNW,284,0.0,6.0,71,0.00,,OVC200,0.01,0.00,VWS V14.01,2013-02-18 04:44:00,
2013-02-17 22:49:00,30.4,22.1,29.37,NW,310,1.0,6.0,71,0.00,,OVC200,0.01,0.00,VWS V14.01,2013-02-18 04:49:00,
2013-02-17 22:54:00,30.6,22.3,29.37,NNW,339,0.0,7.0,71,0.00,,OVC200,0.01,0.00,VWS V14.01,2013-02-18 04:54:00,
2013-02-17 22:59:00,30.6,22.3,29.37,West,279,3.0,7.0,71,0.00,,OVC200,0.01,0.00,VWS V14.01,2013-02-18 04:59:00,
2013-02-17 23:00:00,30.6,22.3,29.37,West,281,0.0,7.0,71,0.00,,OVC200,0.01,0.00,VWS V14.01,2013-02-18 05:00:00,
2013-02-17 23:04:00,30.6,22.3,29.36,North,360,5.0,5.0,71,0.00,,OVC200,0.01,0.00,VWS V14.01,2013-02-18 05:04:00,
2013-02-17 23:09:00,30.6,22.3,29.36,NNW,331,3.0,5.0,71,0.00,,OVC200,0.01,0.00,VWS V14.01,2013-02-18 05:09:00,
2013-02-17 23:14:00,30.6,22.3,29.36,North,360,2.0,5.0,71,0.00,,OVC200,0.01,0.00,VWS V14.01,2013-02-18 05:14:00,
2013-02-17 23:19:00,30.6,22.3,29.35,WNW,292,3.0,9.0,71,0.00,,OVC200,0.01,0.00,VWS V14.01,2013-02-18 05:19:00,
2013-02-17 23:24:00,30.7,22.4,29.35,NW,315,2.0,9.0,71,0.00,,OVC200,0.01,0.00,VWS V14.01,2013-02-18 05:24:00,
2013-02-17 23:29:00,30.9,22.6,29.35,NNW,329,0.0,9.0,71,0.00,,OVC200,0.01,0.00,VWS V14.01,2013-02-18 05:29:00,
2013-02-17 23:30:00,30.9,22.6,29.34,NNW,337,0.0,9.0,71,0.00,,OVC075,0.01,0.00,VWS V15.00,2013-02-18 05:30:00,
2013-02-17 23:34:00,30.9,22.6,29.34,NNW,337,0.0,9.0,71,0.00,,OVC200,0.01,0.00,VWS V14.01,2013-02-18 05:34:00,
2013-02-17 23:39:00,30.7,22.4,29.34,ENE,58,1.0,8.0,71,0.00,,OVC200,0.01,0.00,VWS V14.01,2013-02-18 05:39:00,
2013-02-17 23:44:00,30.9,22.6,29.34,WNW,290,0.0,8.0,71,0.00,,OVC200,0.01,0.00,VWS V14.01,2013-02-18 05:44:00,
2013-02-17 23:49:00,30.9,22.6,29.33,NNE,15,1.0,8.0,71,0.00,,OVC200,0.01,0.00,VWS V14.01,2013-02-18 05:49:00,
2013-02-17 23:54:00,31.0,22.4,29.33,NW,307,0.0,8.0,70,0.00,,OVC200,0.01,0.00,VWS V14.01,2013-02-18 05:54:00,
2013-02-17 23:59:00,31.2,22.6,29.33,North,351,3.0,8.0,70,0.00,,OVC200,0.01,0.00,VWS V14.01,2013-02-18 05:59:00,